Regional Weather Roundup
Issued by NWS Kansas City/Pleasant Hill, MO

Home | Current Version | Previous Version | Graphics & Text | Print | Product List | Glossary Off
Versions: 1 2 3 4 5 6 7 8 9 10 11 12 13 14 15 16 17 18 19 20 21 22 23 24 25 26 27 28 29 30 31 32 33 34 35 36 37 38 39 40 41 42 43 44 45 46 47 48 49 50

054
ASUS43 KEAX 222310
RWREAX

WEATHER ROUNDUP FOR EASTERN KANSAS AND NORTHWEST MISSOURI
NATIONAL WEATHER SERVICE KANSAS CITY/PLEASANT HILL MO
600 PM CDT SUN APR 22 2018

KSZ040-057-103>105-MOZ028-029-037-043-230000-
...KANSAS CITY METROPOLITAN AREA...

CITY           SKY/WX    TMP DP  RH WIND       PRES   REMARKS
K.C. INTL      PTSUNNY   66  41  40 NE14      30.06F
K.C. DOWNTOWN  CLOUDY    67  42  40 E9        30.04F
LEES SUMMIT    CLOUDY    62  45  53 NE13G18   30.06S
OLATHE - IXD   CLOUDY    63  45  51 NE16G24   30.06S
OLATHE - OJC   CLOUDY    62  45  53 NE15      30.05S
LAWRENCE       MOSUNNY   67  43  41 E15G24    30.06S

$$

MOZ001>008-011>017-020>025-030>033-038>040-044>046-053-054-230000-
...NORTHERN AND CENTRAL MISSOURI...

CITY           SKY/WX    TMP DP  RH WIND       PRES   REMARKS
ST. JOSEPH     MOSUNNY   70  42  36 NE18G24   30.08R
MOSBY          CLOUDY    64  37  36 NE13      30.07R
WARRENSBURG    CLOUDY    59  46  63 NE9       30.05S
WHITEMAN AFB   PTSUNNY   59  48  66 NE8       30.01S
CLINTON        CLOUDY    57  48  72 NE15G21   30.03S
SEDALIA        CLOUDY    59  50  72 NE13      30.05S
WARSAW         NOT AVBL
CHILLICOTHE      N/A     66  41  40 E7G22     30.11R
KIRKSVILLE     CLOUDY    63  40  42 E12       30.12R

$$

MOZ041-047>049-056>058-063>065-088>090-097-230000-
...EASTERN AND SOUTHERN MISSOURI...

CITY           SKY/WX    TMP DP  RH WIND       PRES   REMARKS
ST. LOUIS INTL LGT RAIN  59  48  67 NE8       30.05F
SPIRIT OF STL  CLOUDY    57  46  66 E3        30.04F
COLUMBIA       CLOUDY    57  40  52 NE15      30.05S
JEFFERSON CITY CLOUDY    56  41  57 NE10      30.04R
ROLLA          LGT RAIN  50  47  89 NE16G28   30.01R FOG
OSAGE BEACH    LGT RAIN  53  51  93 N8        30.01S
SPRINGFIELD    LGT RAIN  56  54  93 N14       29.94S
BRANSON        LGT RAIN  54  52  94 N10       29.94R FOG
JOPLIN         CLOUDY    57  53  86 NE13G18   29.97R
WEST PLAINS    CLOUDY    54  52  93 NE12      29.90S

$$

IAZ060-094-KSZ022-034>040-054-083-096-NEZ052-066-093-230000-
...KANSAS...SOUTHEAST NEBRASKA AND IOWA...

CITY           SKY/WX    TMP DP  RH WIND       PRES   REMARKS
TOPEKA         SUNNY     67  44  43 NE17      30.06R
MANHATTAN      PTSUNNY   64  43  46 N13       30.08F
EMPORIA        CLOUDY    60  49  66 NE14      30.04S
CHANUTE        CLOUDY    55  51  86 NE12      30.03R
WICHITA        CLOUDY    56  45  66 N15G28    30.08R
OMAHA          PTSUNNY   68  32  26 E8G18     30.13F
LINCOLN        PTSUNNY   66  34  30 E10       30.14F
FALLS CITY     MOSUNNY   69  38  32 E13G22    30.08S
LAMONI         SUNNY     69  36  29 E12       30.11S
DES MOINES     CLOUDY    67  26  21 E8        30.16R

$$





USA.gov is the U.S. government's official web portal to all federal, state and local government web resources and services.